Weather Roundup
Issued by NWS Springfield, MO

Home | Current Version | Previous Version | Text Only | Print | Product List | Glossary On
Versions: 1 2 3 4 5 6 7 8 9 10 11 12 13 14 15 16 17 18 19 20 21 22 23 24 25 26 27 28 29 30 31 32 33 34 35 36 37 38 39 40 41 42 43 44 45 46 47 48 49 50
000
NZUS99 KSGF 220657
HRRSGF

HOURLY WEATHER
NATIONAL WEATHER SERVICE SPRINGFIELD MO
100 AM CST WED FEB 22 2017

......SGF CWA......

CITY           SKY/WX    TMP DP  RH WIND       PRES   REMARKS
SPRINGFIELD    FOG       51  51 100 SW6       29.92R VSB 1/4
JOPLIN         CLEAR     52  52 100 S6        29.91F
ROLLA          FOG       53  53 100 S5        29.87S VSB 1/4

......SURROUNDING SGF CWA......

CITY           SKY/WX    TMP DP  RH WIND       PRES   REMARKS
CHANUTE        CLEAR     45  39  79 S8        29.89F
PARSONS        CLEAR     40  37  89 CALM      29.91F
COFFEYVILLE    CLEAR     44  41  89 CALM      29.91F
EMPORIA        CLEAR     44  34  67 S10       29.86F
ROGERS AR      CLOUDY    55  54  94 CALM      29.94R
HARRISON AR    CLOUDY    55  55 100 CALM      29.92S

......KANSAS AND MISSOURI......

CITY           SKY/WX    TMP DP  RH WIND       PRES   REMARKS
KANSAS CTY INT CLEAR     45  35  68 S10       29.84F
COLUMBIA       FOG       52  52 100 SW5       29.89R VSB 1/4
SEDALIA        CLEAR     56  54  93 SW9       29.89S
ST JOSEPH      PTCLDY    42  37  82 S5        29.84S
ST LOUIS       MOCLDY    58  53  84 S3        29.88S
SPIRIT OF STL  FOG       54  54 100 NW5       29.87S VSB 1
WICHITA        CLEAR     43  37  79 S7        29.88F
TOPEKA         PTCLDY    42  34  73 CALM      29.85S
OLATHE         CLEAR     47  40  76 S7        29.86F

......TENNESSEE......

CITY           SKY/WX    TMP DP  RH WIND       PRES   REMARKS
MEMPHIS        NOT AVBL
NASHVILLE      CLOUDY    57  55  93 N5        29.93F FOG

......ARKANSAS.......

CITY           SKY/WX    TMP DP  RH WIND       PRES   REMARKS
FAYETTEVILLE   MOCLDY    49  49 100 CALM      29.93R
FT SMITH       CLEAR     54  51  90 CALM      29.91S FOG
LITTLE ROCK    MOCLDY    57  57 100 CALM      29.89S

......OKLAHOMA.......

CITY           SKY/WX    TMP DP  RH WIND       PRES   REMARKS
TULSA          CLEAR     50  45  83 CALM      29.91F
PONCA CITY     CLEAR     44  37  76 CALM      29.90F
MCALESTER      PTCLDY    47  44  90 CALM      29.93F
OKLAHOMA CITY  CLEAR     48  37  65 S5        29.93F

......IOWA............

CITY           SKY/WX    TMP DP  RH WIND       PRES   REMARKS
DES MOINES     NOT AVBL
QUAD CITIES    CLEAR     47  43  86 S3        29.83S FOG

......ILLINOIS........

CITY           SKY/WX    TMP DP  RH WIND       PRES   REMARKS
QUINCY         NOT AVBL
CHICAGO        MOCLDY    56  52  86 SW5       29.84S




USA.gov is the U.S. government's official web portal to all federal, state and local government web resources and services.